Location: Kitt Peak
(31.9639°N, 111.5992°W)
Time: 13:52:10
(UTC-07:00)

Envisat - Visible Passes

Search period start: 20 August 2019 00:00
Search period end: 30 August 2019 00:00
Orbit: 764 x 766 km, 98.1° (Epoch: 20 August)

Date Brightness Start Highest point End Pass type
(mag) Time Alt. Az. Time Alt. Az. Time Alt. Az.
20 Aug 5.7 19:53:54 10° SW 19:57:24 19° W 20:00:54 10° NW visible
23 Aug 5.4 19:42:01 10° SSW 19:46:04 24° W 19:50:09 10° NW visible
25 Aug 6.0 20:09:38 10° WSW 20:11:46 13° W 20:13:55 10° WNW visible
26 Aug 5.0 19:30:18 10° SSW 19:34:46 31° W 19:39:16 10° NW visible
28 Aug 5.8 19:57:14 10° SW 20:00:26 17° W 20:03:38 10° NW visible
29 Aug 4.5 19:18:44 10° SSW 19:23:29 41° W 19:28:16 10° NNW visible
